Weather History for KDEC - December, 2012

Change the Weather History Date:

Thursday, December 27, 2012

  Actual Average Record
Temperature  
Mean Temperature 30 °F 28 °F  
Max Temperature 31 °F 36 °F 64 °F (2008)
Min Temperature 28 °F 20 °F 6 °F (2000)
Degree Days  
Heating Degree Days 35 37  
Month to date heating degree days 651 910  
Since 1 July heating degree days 1800 1991  
Cooling Degree Days 0 0  
Month to date cooling degree days 0 0  
Year to date cooling degree days 1427 1048  
Moisture  
Dew Point 21 °F    
Average Humidity 71    
Maximum Humidity 78    
Minimum Humidity 63    
Precipitation  
Precipitation 0.00 in 0.08 in 1.34 in (2008)
Month to date precipitation 2.21 2.17  
Year to date precipitation 26.06 38.08  
Sea Level Pressure  
Sea Level Pressure 30.16 in    
Wind  
Wind Speed 6 mph (NNE)    
Max Wind Speed 14 mph    
Max Gust Speed 16 mph    
Visibility 10 miles    
Events      
T = Trace of Precipitation, MM = Missing Value Source: NWS Daily Summary

Daily Weather History Graph

Daily Weather History Graph

Search for Another Location

Airport or City:

Trip Planner

Search our weather history database for the weather conditions in past years. The results will help you decide how hot, cold, wet, or windy it might be!

Date:

Astronomy

Dec. 27, 2012 Rise Set
Actual Time 7:15 AM CST 4:37 PM CST
Civil Twilight 6:45 AM CST 5:08 PM CST
Nautical Twilight 6:11 AM CST 5:42 PM CST
Astronomical Twilight 5:38 AM CST 6:15 PM CST
Moon 4:20 PM CST (12/27) 6:26 AM CST (12/27)
Length of Visible Light 10h 22m
Length of Day
9h 22m
Full, 100% of the Moon is Illuminated
Dec 27
Full
Dec 28
Full
Jan 4
Last Quarter
Jan 11
New
Jan 18
First Quarter

Hourly Weather History & Observations

Time (CST) Temp. Windchill Dew Point Humidity Pressure Visibility Wind Dir Wind Speed Gust Speed Precip Events Conditions
12:36 AM 28.4 °F 19.7 °F 21.2 °F 74% 30.12 in 10.0 mi WNW 9.2 mph - N/A   Overcast
12:54 AM 28.9 °F 21.1 °F 21.9 °F 75% 30.15 in 10.0 mi NW 8.1 mph - N/A   Overcast
1:54 AM 28.0 °F 20.0 °F 21.9 °F 78% 30.16 in 10.0 mi NW 8.1 mph - N/A   Overcast
2:24 AM 28.4 °F 20.4 °F 21.2 °F 74% 30.13 in 10.0 mi NNW 8.1 mph - N/A   Overcast
2:47 AM 28.4 °F 19.7 °F 21.2 °F 74% 30.14 in 10.0 mi NNW 9.2 mph - N/A   Overcast
2:54 AM 28.0 °F 18.6 °F 21.9 °F 78% 30.17 in 10.0 mi NW 10.4 mph - N/A   Overcast
3:26 AM 28.4 °F 20.4 °F 21.2 °F 74% 30.14 in 10.0 mi North 8.1 mph - N/A   Overcast
3:52 AM 28.4 °F 19.1 °F 21.2 °F 74% 30.13 in 10.0 mi North 10.4 mph - N/A   Overcast
3:54 AM 28.0 °F 20.0 °F 21.9 °F 78% 30.15 in 10.0 mi North 8.1 mph - N/A   Overcast
4:54 AM 28.0 °F 20.8 °F 21.9 °F 78% 30.18 in 10.0 mi WNW 6.9 mph - N/A   Overcast
5:54 AM 28.0 °F 21.7 °F 21.9 °F 78% 30.19 in 10.0 mi NW 5.8 mph - N/A   Overcast
6:54 AM 28.0 °F 20.8 °F 21.9 °F 78% 30.20 in 10.0 mi NNW 6.9 mph - N/A   Overcast
7:54 AM 28.0 °F 21.7 °F 21.9 °F 78% 30.20 in 10.0 mi NNW 5.8 mph - N/A   Overcast
8:54 AM 28.9 °F - 21.9 °F 75% 30.22 in 10.0 mi Calm Calm - N/A   Overcast
9:54 AM 30.0 °F - 23.0 °F 75% 30.22 in 10.0 mi Calm Calm - N/A   Overcast
10:54 AM 30.0 °F 26.5 °F 21.9 °F 72% 30.20 in 10.0 mi ESE 3.5 mph - N/A   Overcast
11:54 AM 30.0 °F - 19.9 °F 66% 30.20 in 10.0 mi Calm Calm - N/A   Overcast
12:54 PM 30.0 °F 26.5 °F 19.9 °F 66% 30.17 in 10.0 mi SE 3.5 mph - N/A   Overcast
1:54 PM 30.0 °F 25.2 °F 19.9 °F 66% 30.16 in 10.0 mi South 4.6 mph - N/A   Overcast
2:54 PM 30.0 °F - 19.9 °F 66% 30.16 in 10.0 mi Calm Calm - N/A   Overcast
3:54 PM 30.0 °F 21.7 °F 21.0 °F 69% 30.17 in 10.0 mi ESE 9.2 mph - N/A   Overcast
4:54 PM 30.0 °F 23.2 °F 21.0 °F 69% 30.16 in 10.0 mi East 6.9 mph - N/A   Overcast
5:54 PM 30.0 °F 21.7 °F 21.0 °F 69% 30.15 in 10.0 mi ESE 9.2 mph - N/A   Overcast
6:54 PM 28.9 °F 19.8 °F 21.0 °F 72% 30.16 in 10.0 mi SE 10.4 mph - N/A   Overcast
7:54 PM 28.9 °F 21.9 °F 21.0 °F 72% 30.15 in 10.0 mi SE 6.9 mph - N/A   Overcast
8:54 PM 28.9 °F 19.8 °F 19.9 °F 69% 30.15 in 10.0 mi SSE 10.4 mph - N/A   Overcast
9:54 PM 28.9 °F 21.1 °F 21.0 °F 72% 30.15 in 10.0 mi SSE 8.1 mph - N/A   Overcast
10:54 PM 28.9 °F 21.9 °F 21.9 °F 75% 30.16 in 10.0 mi SSE 6.9 mph - N/A   Overcast
11:54 PM 28.9 °F 22.8 °F 21.9 °F 75% 30.14 in 10.0 mi SSE 5.8 mph - N/A   Overcast